Time,TemperatureF,DewpointF,PressureIn,WindDirection,WindDirectionDegrees,WindSpeedMPH,WindSpeedGustMPH,Humidity,HourlyPrecipIn,Conditions,Clouds,dailyrainin,SoftwareType,DateUTC
2013-12-07 00:02:00,11.0,8.0,-100.00,NNW,333,1.0,2.0,90,0.02,,,-99.99,,2013-12-07 07:02:00,
2013-12-07 00:22:00,11.0,8.0,-100.00,NW,311,0.0,1.0,91,0.01,,,-99.99,,2013-12-07 07:22:00,
2013-12-07 00:32:00,11.0,8.0,-100.00,NW,311,0.0,1.0,91,0.01,,,-99.99,,2013-12-07 07:32:00,
2013-12-07 00:53:00,11.0,8.0,-100.00,NNW,328,2.0,2.0,91,0.00,,,-99.99,,2013-12-07 07:53:00,
2013-12-07 01:02:00,11.0,8.0,-100.00,NNW,328,2.0,2.0,91,0.00,,,-99.99,,2013-12-07 08:02:00,
2013-12-07 01:21:00,11.0,9.0,-100.00,NNW,332,1.0,2.0,91,0.00,,,-99.99,,2013-12-07 08:21:00,
2013-12-07 01:32:00,11.0,9.0,-100.00,NNW,332,1.0,2.0,91,0.00,,,-99.99,,2013-12-07 08:32:00,
2013-12-07 01:52:00,11.0,9.0,-100.00,NW,322,0.0,1.0,90,0.00,,,-99.99,,2013-12-07 08:52:00,
2013-12-07 02:02:00,11.0,9.0,-100.00,NW,322,0.0,1.0,90,0.00,,,-99.99,,2013-12-07 09:02:00,
2013-12-07 02:22:00,11.0,9.0,-100.00,NW,318,1.0,2.0,90,0.01,,,-99.99,,2013-12-07 09:22:00,
2013-12-07 02:33:00,11.0,9.0,-100.00,NW,318,1.0,2.0,90,0.01,,,-99.99,,2013-12-07 09:33:00,
2013-12-07 02:53:00,11.0,9.0,-100.00,NNW,333,1.0,2.0,91,0.00,,,-99.99,,2013-12-07 09:53:00,
2013-12-07 03:00:00,11.0,9.0,-100.00,NW,306,1.0,2.0,91,0.03,,,-99.99,,2013-12-07 10:00:00,
2013-12-07 03:03:00,11.0,9.0,-100.00,NNW,333,1.0,2.0,91,0.00,,,-99.99,,2013-12-07 10:03:00,
2013-12-07 03:23:00,11.0,9.0,-100.00,NW,319,0.0,1.0,91,0.02,,,-99.99,,2013-12-07 10:23:00,
2013-12-07 03:33:00,11.0,9.0,-100.00,NW,319,0.0,1.0,91,0.02,,,-99.99,,2013-12-07 10:33:00,
2013-12-07 03:53:00,11.0,9.0,-100.00,NW,306,1.0,2.0,91,0.03,,,-99.99,,2013-12-07 10:53:00,
2013-12-07 04:22:00,11.0,9.0,-100.00,NW,313,2.0,3.0,92,0.00,,,-99.99,,2013-12-07 11:22:00,
2013-12-07 04:32:00,11.0,9.0,-100.00,NW,313,2.0,3.0,92,0.00,,,-99.99,,2013-12-07 11:32:00,
2013-12-07 04:52:00,11.0,9.0,-100.00,NNW,330,2.0,3.0,92,0.00,,,-99.99,,2013-12-07 11:52:00,
2013-12-07 05:02:00,11.0,9.0,-100.00,NNW,330,2.0,3.0,92,0.00,,,-99.99,,2013-12-07 12:02:00,
2013-12-07 05:22:00,11.0,9.0,-100.00,NW,312,2.0,3.0,92,0.01,,,-99.99,,2013-12-07 12:22:00,
2013-12-07 05:32:00,11.0,9.0,-100.00,NW,312,2.0,3.0,92,0.01,,,-99.99,,2013-12-07 12:32:00,
2013-12-07 05:52:00,11.0,9.0,-100.00,NW,316,1.0,4.0,92,0.06,,,-99.99,,2013-12-07 12:52:00,
2013-12-07 06:02:00,11.0,9.0,-100.00,NW,316,1.0,4.0,92,0.06,,,-99.99,,2013-12-07 13:02:00,
2013-12-07 06:11:00,11.0,9.0,-100.00,NW,316,1.0,4.0,92,0.06,,,-99.99,,2013-12-07 13:11:00,
2013-12-07 11:22:00,13.0,10.0,-100.00,WNW,296,1.0,2.0,90,0.00,,,-99.99,,2013-12-07 18:22:00,
2013-12-07 11:32:00,13.0,10.0,-100.00,WNW,296,1.0,2.0,90,0.00,,,-99.99,,2013-12-07 18:32:00,
2013-12-07 11:43:00,13.0,10.0,-100.00,WNW,296,1.0,2.0,90,0.00,,,-99.99,,2013-12-07 18:43:00,
2013-12-07 12:11:00,14.0,10.0,-100.00,NW,325,3.0,6.0,82,0.00,,,-99.99,,2013-12-07 19:11:00,
2013-12-07 12:22:00,14.0,10.0,-100.00,NW,325,3.0,6.0,82,0.00,,,-99.99,,2013-12-07 19:22:00,
2013-12-07 12:42:00,16.0,11.0,-100.00,WNW,292,1.0,3.0,81,0.00,,,-99.99,,2013-12-07 19:42:00,
2013-12-07 13:11:00,15.0,9.0,-100.00,NW,312,2.0,4.0,76,0.00,,,-99.99,,2013-12-07 20:11:00,
2013-12-07 13:42:00,16.0,9.0,-100.00,WSW,241,2.0,5.0,73,0.00,,,-99.99,,2013-12-07 20:42:00,
2013-12-07 14:11:00,15.0,9.0,-100.00,WNW,295,2.0,7.0,75,0.00,,,-99.99,,2013-12-07 21:11:00,
2013-12-07 14:22:00,15.0,9.0,-100.00,WNW,295,2.0,7.0,75,0.00,,,-99.99,,2013-12-07 21:22:00,
2013-12-07 14:43:00,13.0,7.0,-100.00,WSW,243,3.0,5.0,77,0.00,,,-99.99,,2013-12-07 21:43:00,
2013-12-07 15:13:00,12.0,6.0,-100.00,WNW,301,4.0,7.0,76,0.00,,,-99.99,,2013-12-07 22:13:00,
2013-12-07 15:23:00,12.0,6.0,-100.00,WNW,301,4.0,7.0,76,0.00,,,-99.99,,2013-12-07 22:23:00,
2013-12-07 15:42:00,12.0,6.0,-100.00,NW,322,6.0,9.0,76,0.00,,,-99.99,,2013-12-07 22:42:00,
2013-12-07 16:00:00,9.0,4.0,-100.00,NNE,13,2.0,4.0,79,0.00,,,-99.99,,2013-12-07 23:00:00,
2013-12-07 16:12:00,10.0,5.0,-100.00,NW,312,5.0,7.0,78,0.00,,,-99.99,,2013-12-07 23:12:00,
2013-12-07 16:21:00,10.0,5.0,-100.00,NW,312,5.0,7.0,78,0.00,,,-99.99,,2013-12-07 23:21:00,
2013-12-07 16:42:00,9.0,4.0,-100.00,NNE,13,2.0,4.0,79,0.00,,,-99.99,,2013-12-07 23:42:00,
2013-12-07 16:52:00,9.0,4.0,-100.00,NNE,13,2.0,4.0,79,0.00,,,-99.99,,2013-12-07 23:52:00,
2013-12-07 17:22:00,8.0,3.0,-100.00,SSW,202,2.0,3.0,81,0.00,,,-99.99,,2013-12-08 00:22:00,
2013-12-07 17:32:00,8.0,3.0,-100.00,SSW,202,2.0,3.0,81,0.00,,,-99.99,,2013-12-08 00:32:00,
2013-12-07 17:52:00,7.0,2.0,-100.00,NW,308,4.0,7.0,81,0.00,,,-99.99,,2013-12-08 00:52:00,
2013-12-07 18:02:00,7.0,2.0,-100.00,NW,308,4.0,7.0,81,0.00,,,-99.99,,2013-12-08 01:02:00,
2013-12-07 18:22:00,6.0,2.0,-100.00,NNW,342,3.0,6.0,80,0.00,,,-99.99,,2013-12-08 01:22:00,
2013-12-07 18:32:00,6.0,2.0,-100.00,NNW,342,3.0,6.0,80,0.00,,,-99.99,,2013-12-08 01:32:00,
2013-12-07 18:52:00,6.0,1.0,-100.00,WNW,292,4.0,8.0,81,0.00,,,-99.99,,2013-12-08 01:52:00,
2013-12-07 19:02:00,6.0,1.0,-100.00,WNW,292,4.0,8.0,81,0.00,,,-99.99,,2013-12-08 02:02:00,
2013-12-07 19:21:00,5.0,1.0,-100.00,West,263,3.0,6.0,82,0.00,,,-99.99,,2013-12-08 02:21:00,
2013-12-07 19:32:00,5.0,1.0,-100.00,West,263,3.0,6.0,82,0.00,,,-99.99,,2013-12-08 02:32:00,
2013-12-07 19:52:00,4.0,0.0,-100.00,West,265,2.0,3.0,82,0.00,,,-99.99,,2013-12-08 02:52:00,
2013-12-07 20:02:00,4.0,0.0,-100.00,West,265,2.0,3.0,82,0.00,,,-99.99,,2013-12-08 03:02:00,
2013-12-07 20:22:00,4.0,0.0,-100.00,West,274,3.0,7.0,82,0.00,,,-99.99,,2013-12-08 03:22:00,
2013-12-07 20:33:00,4.0,0.0,-100.00,West,274,3.0,7.0,82,0.00,,,-99.99,,2013-12-08 03:33:00,
2013-12-07 20:54:00,3.0,-1.0,-100.00,WSW,247,2.0,3.0,83,0.00,,,-99.99,,2013-12-08 03:54:00,
2013-12-07 21:02:00,-999.0,-99.9,-100.00,WSW,247,2.0,3.0,-999,0.00,,,-99.99,,2013-12-08 04:02:00,
2013-12-07 21:23:00,1.0,-2.0,-100.00,East,79,2.0,3.0,85,0.00,,,-99.99,,2013-12-08 04:23:00,
2013-12-07 21:33:00,1.0,-2.0,-100.00,East,79,2.0,3.0,85,0.00,,,-99.99,,2013-12-08 04:33:00,
2013-12-07 21:53:00,1.0,-2.0,-100.00,SW,236,1.0,2.0,86,0.00,,,-99.99,,2013-12-08 04:53:00,
2013-12-07 22:02:00,1.0,-2.0,-100.00,SW,236,1.0,2.0,86,0.00,,,-99.99,,2013-12-08 05:02:00,
2013-12-07 22:22:00,0.0,-3.0,-100.00,SSW,206,1.0,2.0,87,0.00,,,-99.99,,2013-12-08 05:22:00,
2013-12-07 22:33:00,0.0,-3.0,-100.00,SSW,206,1.0,2.0,87,0.00,,,-99.99,,2013-12-08 05:33:00,
2013-12-07 22:53:00,0.0,-3.0,-100.00,WSW,243,1.0,2.0,88,0.00,,,-99.99,,2013-12-08 05:53:00,
2013-12-07 23:02:00,0.0,-3.0,-100.00,WSW,243,1.0,2.0,88,0.00,,,-99.99,,2013-12-08 06:02:00,
2013-12-07 23:23:00,-1.0,-4.0,-100.00,SW,234,1.0,2.0,88,0.00,,,-99.99,,2013-12-08 06:23:00,
2013-12-07 23:32:00,-1.0,-4.0,-100.00,SW,234,1.0,2.0,88,0.00,,,-99.99,,2013-12-08 06:32:00,
2013-12-07 23:52:00,-1.0,-4.0,-100.00,NE,49,1.0,1.0,88,0.00,,,-99.99,,2013-12-08 06:52:00,